Flight Track Log - Related Links

Times and Time Zones

All times are in EDT time to prevent confusion due to time zone crossing. See the AKX1695 flight status page for this flight to view local times or setup timezone preferences in your user account.

Time Position Orientation Groundspeed Altitude Reporting Facility
EDT Latitude Longitude Course Direction KTS MPH feet Rate Location/Type
Mon 02:17:00 AM 36.0559 137.9439 57° Northeast  Level Estimated
Mon 02:18:00 AM 36.1056 138.0458 59° Northeast  Level Estimated
Mon 02:19:00 AM 36.1552 138.1478 59° Northeast  Level Estimated
Mon 02:20:00 AM 36.2048 138.2499 59° Northeast  Level Estimated
Mon 02:21:00 AM 36.2542 138.3522 59° Northeast  Level Estimated
Mon 02:22:00 AM 36.3036 138.4546 59° Northeast  Level Estimated
Mon 02:23:00 AM 36.3529 138.5571 59° Northeast  Level Estimated
Mon 02:24:00 AM 36.4021 138.6598 59° Northeast  Level Estimated
Mon 02:25:00 AM 36.4512 138.7626 59° Northeast  Level Estimated
Mon 02:26:00 AM 36.5003 138.8655 59° Northeast  Level Estimated
Mon 02:27:00 AM 36.5492 138.9685 59° Northeast  Level Estimated
Mon 02:28:00 AM 36.5980 139.0717 59° Northeast  Level Estimated
Mon 02:29:00 AM 36.6468 139.1750 60° Northeast  Level Estimated
Mon 02:30:00 AM 36.6955 139.2785 60° Northeast  Level Estimated
Mon 02:31:00 AM 36.7440 139.3820 60° Northeast  Level Estimated
Mon 02:32:00 AM 36.7925 139.4857 60° Northeast  Level Estimated
Mon 02:33:00 AM 36.8409 139.5896 60° Northeast  Level Estimated
Mon 02:34:00 AM 36.8893 139.6935 60° Northeast  Level Estimated
Mon 02:35:00 AM 36.9375 139.7976 60° Northeast  Level Estimated
Mon 02:36:00 AM 36.9856 139.9019 60° Northeast  Level Estimated
Mon 02:37:00 AM 37.0336 140.0062 60° Northeast  Level Estimated
Mon 02:38:00 AM 37.0816 140.1107 60° Northeast  Level Estimated
Mon 02:39:00 AM 37.1294 140.2153 60° Northeast  Level Estimated
Mon 02:40:00 AM 37.1772 140.3201 60° Northeast  Level Estimated
Mon 02:41:00 AM 37.2248 140.4250 60° Northeast  Level Estimated
Mon 02:42:00 AM 37.2274 140.4307 60° Northeast  Level Estimated
Mon 02:43:00 AM 37.2274 140.4307 302° West  Level Estimated
Mon 02:44:00 AM 37.2274 140.4307 302° West  Level Estimated
Mon 02:45:00 AM 37.2274 140.4307 302° West  Level Estimated
Mon 02:46:00 AM 37.2274 140.4307 302° West  Level Estimated
Mon 02:47:00 AM 37.2274 140.4307 302° West  Level Estimated
Mon 02:48:00 AM 37.2274 140.4307 302° West  Level Estimated
Mon 02:49:00 AM 37.2274 140.4307 302° West  Level Estimated
Mon 02:50:00 AM 37.2274 140.4307 302° West  Level Estimated
Mon 02:51:00 AM 37.2274 140.4307 302° West  Level Estimated
Mon 02:52:00 AM 37.2274 140.4307 302° West  Level Estimated
Mon 02:53:00 AM 37.2274 140.4307 302° West  Level Estimated
Mon 02:54:00 AM 37.2274 140.4307 302° West  Level Estimated
Mon 02:55:00 AM 37.2274 140.4307 302° West  Level Estimated
Mon 02:56:00 AM 37.2274 140.4307 302° West  Level Estimated
Mon 02:57:00 AM 37.2274 140.4307 302° West  Level Estimated

Login

Don't have an account? Register now (free) for customized features, flight alerts, and more!